Starlink 4369

operational
NORAD ID: 53191 Int'l Des: 2022-084 Owner: SPXS Country: US Constellation: starlink
LEOCIRCULARRETROGRADESSO

About Starlink 4369

Description loading...

Live Position

Loading 3D Globe...

Upcoming Passes

Altitude History

Altitude vs Time

uPlot chart will show altitude changes over time

Two-Line Element Set

1 53191U 22084C 26066.17606017 .00001007 00000-0 82952-4 0 9991
2 53191 97.6027 127.7539 0002465 85.9607 274.1899 15.01261406198934
Epoch: Mar 7, 2026 • Age: 15 hours

Current Status

Altitude 588.1 km
Velocity 7.56 km/s
Sub-Earth Point -61.15°S, 94.56°W
Launch Date Jul 22, 2022
Age 3.6 years
Type internet

Technical Details

Classification Payload
Mass 297.00 kg
Dry Mass 275.00 kg
Total Mass 297.00 kg
Length 0.20 m
Diameter 2.80 m
Span 9.00 m
Shape Box + pan
Manufacturer SPXS
Bus Type Starlink
Phase Status In Orbit
Owner/State SPXS/US

Large Constellations

Loading constellations...